Location: Rio Negrinho
(26.2394°S, 49.4999°W)
Time: 02:43:00
(UTC+00:00)

SEDSat Delta rocket - Pass Details

Date: 08 October 2020
Orbit: 533 x 1000 km, 31.4° (Epoch: 20 October)

Event Time Altitude Azimuth Distance (km) Brightness Sun altitude
Rises 00:29:37 0° 253° (WSW) 3,341 7.6 -40.3°
Reaches altitude 10° 00:32:21 10° 249° (WSW) 2,327 6.6 -40.8°
Enters shadow 00:33:33 16° 246° (WSW) 1,888 6.1 -41.1°
